Time[GMT],salinity[psu](1m),sigma_t[kg/m^3](1m),conductivity[msiemens/cm](1m),temperature[C](1m)
2019-08-23 18:00,34.973,21.908,57.680,29.41
2019-08-23 19:00,35.032,21.940,57.810,29.45
2019-08-23 20:00,35.039,21.945,57.820,29.45
2019-08-23 21:00,35.074,21.978,57.850,29.43
2019-08-23 22:00,35.082,21.990,57.840,29.41
2019-08-23 23:00,35.083,21.998,57.820,29.39
2019-08-24 00:00,35.035,21.958,57.760,29.40
2019-08-24 01:00,35.064,21.990,57.770,29.37
2019-08-24 02:00,35.100,22.034,57.770,29.32
2019-08-24 03:00,35.164,22.095,57.820,29.28
2019-08-24 04:00,35.283,22.202,57.940,29.23
2019-08-24 05:00,35.309,22.215,58.000,29.25
2019-08-24 06:00,35.261,22.179,57.930,29.25
2019-08-24 07:00,35.253,22.162,57.950,29.28
2019-08-24 08:00,35.260,22.171,57.950,29.27
2019-08-24 09:00,35.261,22.179,57.930,29.25
2019-08-24 10:00,35.269,22.191,57.920,29.23
2019-08-24 11:00,35.277,22.204,57.910,29.21
2019-08-24 12:00,35.282,22.198,57.950,29.24
2019-08-24 13:00,35.004,21.959,57.640,29.33
2019-08-24 14:00,35.054,21.966,57.810,29.42
2019-08-24 15:00,35.085,21.966,57.930,29.49
2019-08-24 16:00,35.049,21.925,57.920,29.53
2019-08-24 17:00,35.087,21.930,58.050,29.60
2019-08-24 18:00,35.048,21.863,58.110,29.71
2019-08-24 19:00,35.073,21.865,58.200,29.76
2019-08-24 20:00,35.065,21.856,58.200,29.77
2019-08-24 21:00,35.091,21.869,58.260,29.79
2019-08-24 22:00,35.134,21.911,58.290,29.76
2019-08-24 23:00,35.094,21.891,58.200,29.73
2019-08-25 00:00,35.096,21.906,58.160,29.69
2019-08-25 01:00,35.049,21.871,58.090,29.69
2019-08-25 02:00,35.079,21.913,58.070,29.63
2019-08-25 03:00,35.163,21.997,58.130,29.57
2019-08-25 04:00,35.277,22.160,58.050,29.34
2019-08-25 05:00,35.300,22.195,58.030,29.29
2019-08-25 06:00,35.302,22.159,58.150,29.40
2019-08-25 07:00,35.284,22.162,58.070,29.35
2019-08-25 08:00,35.301,22.198,58.020,29.28
2019-08-25 09:00,35.289,22.199,57.970,29.25
2019-08-25 10:00,35.283,22.205,57.930,29.22
2019-08-25 11:00,35.284,22.213,57.910,29.20
2019-08-25 12:00,35.277,22.204,57.910,29.21
2019-08-25 13:00,34.872,21.846,57.490,29.37
2019-08-25 14:00,34.815,21.787,57.460,29.42
2019-08-25 15:00,34.840,21.789,57.550,29.47
2019-08-25 16:00,34.873,21.800,57.640,29.51
2019-08-25 17:00,34.781,21.704,57.590,29.59
2019-08-25 18:00,34.731,21.646,57.580,29.65
2019-08-25 19:00,34.750,21.650,57.640,29.68
2019-08-25 20:00,34.784,21.679,57.680,29.67
2019-08-25 21:00,34.817,21.697,57.750,29.69
2019-08-25 22:00,34.867,21.751,57.770,29.64
2019-08-25 23:00,34.890,21.785,57.750,29.59
2019-08-26 00:00,34.863,21.772,57.690,29.57
2019-08-26 01:00,34.809,21.735,57.600,29.56
2019-08-26 02:00,34.811,21.750,57.560,29.52
2019-08-26 03:00,34.854,21.799,57.570,29.47
2019-08-26 04:00,34.960,21.906,57.640,29.39
2019-08-26 05:00,34.965,21.892,57.700,29.44
2019-08-26 06:00,34.965,21.896,57.690,29.43
2019-08-26 07:00,34.987,21.926,57.680,29.39
2019-08-26 08:00,34.995,21.935,57.680,29.38
2019-08-26 09:00,34.996,21.942,57.660,29.36
2019-08-26 10:00,34.969,21.925,57.610,29.35
2019-08-26 11:00,34.839,21.832,57.410,29.34
2019-08-26 12:00,34.825,21.818,57.400,29.35
2019-08-26 13:00,34.768,21.758,57.370,29.40
2019-08-26 14:00,34.771,21.727,57.480,29.50
2019-08-26 15:00,34.808,21.728,57.620,29.58
2019-08-26 16:00,34.811,21.692,57.740,29.69
2019-08-26 17:00,34.774,21.644,57.750,29.75
2019-08-26 18:00,34.727,21.609,57.680,29.75
2019-08-26 19:00,34.725,21.598,57.710,29.78
2019-08-26 20:00,34.738,21.600,57.750,29.80
2019-08-26 21:00,34.759,21.623,57.760,29.78
2019-08-26 22:00,34.781,21.649,57.760,29.75
2019-08-26 23:00,34.803,21.676,57.760,29.72
2019-08-27 00:00,34.832,21.715,57.750,29.67
2019-08-27 01:00,34.834,21.733,57.700,29.62
2019-08-27 02:00,34.822,21.734,57.650,29.59
2019-08-27 03:00,34.803,21.737,57.570,29.54
2019-08-27 04:00,34.855,21.806,57.550,29.45
2019-08-27 05:00,34.975,21.927,57.630,29.36
2019-08-27 06:00,34.899,21.863,57.540,29.38
2019-08-27 07:00,34.894,21.873,57.490,29.34
2019-08-27 08:00,34.985,21.958,57.570,29.29
2019-08-27 09:00,35.043,22.021,57.590,29.23
2019-08-27 10:00,34.910,21.901,57.460,29.29
2019-08-27 11:00,34.878,21.844,57.520,29.39
2019-08-27 12:00,34.793,21.757,57.470,29.46
2019-08-27 13:00,34.770,21.716,57.510,29.53
2019-08-27 14:00,34.754,21.683,57.550,29.59
2019-08-27 15:00,34.758,21.662,57.630,29.66
2019-08-27 16:00,34.781,21.646,57.770,29.76
2019-08-27 17:00,34.825,21.652,57.920,29.84
2019-08-27 18:00,34.934,21.744,58.050,29.81
2019-08-27 19:00,34.996,21.797,58.120,29.79
2019-08-27 20:00,34.981,21.769,58.150,29.84
2019-08-27 21:00,35.018,21.824,58.120,29.76
2019-08-27 22:00,35.098,21.921,58.120,29.65
2019-08-27 23:00,35.115,22.005,57.920,29.44
2019-08-28 00:00,35.164,22.048,57.970,29.42
2019-08-28 01:00,35.133,22.049,57.850,29.35
2019-08-28 02:00,35.148,22.066,57.850,29.33
2019-08-28 03:00,35.048,22.012,57.640,29.27
2019-08-28 04:00,35.151,22.093,57.780,29.26
2019-08-28 05:00,35.290,22.167,58.080,29.35
2019-08-28 06:00,34.947,21.949,57.450,29.23
2019-08-28 07:00,35.058,22.046,57.570,29.19
2019-08-28 08:00,35.138,22.090,57.740,29.24
2019-08-28 09:00,35.192,22.120,57.850,29.27
2019-08-28 10:00,35.246,22.157,57.940,29.28
2019-08-28 11:00,35.242,22.127,58.020,29.36
2019-08-28 12:00,35.248,22.129,58.040,29.37
2019-08-28 13:00,35.154,22.072,57.860,29.33
2019-08-28 14:00,35.113,22.041,57.800,29.33
2019-08-28 15:00,34.932,21.878,57.620,29.41
2019-08-28 16:00,34.854,21.803,57.560,29.46
2019-08-28 17:00,34.789,21.777,57.390,29.39
2019-08-28 18:00,34.887,21.864,57.490,29.35
2019-08-28 19:00,35.084,22.005,57.800,29.37
2019-08-28 20:00,34.957,21.934,57.540,29.30
2019-08-28 21:00,34.894,21.926,57.320,29.18
2019-08-28 22:00,34.935,21.957,57.380,29.18
2019-08-28 23:00,34.918,21.921,57.430,29.25
2019-08-29 00:00,34.965,21.950,57.520,29.27
2019-08-29 01:00,35.027,21.992,57.620,29.28
2019-08-29 02:00,35.029,22.015,57.560,29.22
2019-08-29 03:00,35.002,21.994,57.520,29.22
2019-08-29 04:00,34.927,21.941,57.400,29.21
2019-08-29 05:00,34.952,21.947,57.480,29.25
2019-08-29 06:00,34.962,21.971,57.440,29.20
2019-08-29 07:00,34.920,21.932,57.400,29.22
2019-08-29 08:00,34.726,21.777,57.150,29.25
2019-08-29 09:00,34.705,21.751,57.150,29.28
2019-08-29 10:00,34.697,21.739,57.160,29.30
2019-08-29 11:00,34.677,21.727,57.120,29.29
2019-08-29 12:00,34.636,21.700,57.050,29.28
2019-08-29 13:00,34.642,21.697,57.080,29.30
2019-08-29 14:00,34.661,21.691,57.170,29.36
2019-08-29 15:00,34.687,21.704,57.230,29.38
2019-08-29 16:00,34.697,21.681,57.340,29.47
2019-08-29 17:00,34.710,21.684,57.380,29.49
2019-08-29 18:00,34.730,21.692,57.430,29.51
2019-08-29 19:00,34.759,21.731,57.420,29.46
2019-08-29 20:00,34.790,21.781,57.380,29.38
2019-08-29 21:00,34.269,21.448,56.440,29.21
2019-08-29 22:00,33.878,21.221,55.660,29.01
2019-08-29 23:00,34.414,21.563,56.630,29.19
2019-08-30 00:00,33.990,21.331,55.740,28.93
2019-08-30 01:00,34.146,21.436,56.010,28.97
2019-08-30 02:00,34.403,21.581,56.530,29.11
2019-08-30 03:00,34.451,21.625,56.580,29.09
2019-08-30 04:00,34.480,21.656,56.590,29.06
2019-08-30 05:00,34.508,21.680,56.620,29.05
2019-08-30 06:00,34.514,21.682,56.640,29.06
2019-08-30 07:00,34.609,21.743,56.810,29.09
2019-08-30 08:00,34.661,21.759,56.960,29.16
2019-08-30 09:00,34.591,21.749,56.720,29.03
2019-08-30 10:00,34.545,21.731,56.600,28.98
2019-08-30 11:00,34.545,21.738,56.580,28.96
2019-08-30 12:00,34.484,21.703,56.460,28.93
2019-08-30 13:00,34.489,21.679,56.550,29.01
2019-08-30 14:00,34.451,21.617,56.600,29.11
2019-08-30 15:00,34.510,21.638,56.760,29.18
2019-08-30 16:00,34.464,21.553,56.850,29.33
2019-08-30 17:00,34.330,21.416,56.770,29.44
2019-08-30 18:00,34.378,21.448,56.850,29.45
2019-08-30 19:00,34.436,21.469,57.010,29.52
2019-08-30 20:00,34.566,21.570,57.190,29.51
2019-08-30 21:00,34.400,21.422,57.020,29.58
2019-08-30 22:00,34.363,21.424,56.870,29.49
2019-08-30 23:00,34.399,21.471,56.860,29.43
2019-08-31 00:00,34.455,21.526,56.900,29.39
2019-08-31 01:00,34.491,21.574,56.890,29.33
2019-08-31 02:00,34.519,21.605,56.900,29.30
2019-08-31 03:00,34.548,21.640,56.900,29.26
2019-08-31 04:00,34.536,21.641,56.850,29.23
2019-08-31 05:00,34.564,21.672,56.860,29.20
2019-08-31 06:00,34.585,21.691,56.880,29.19
2019-08-31 07:00,34.676,21.776,56.960,29.14
2019-08-31 08:00,34.610,21.747,56.800,29.08
2019-08-31 09:00,34.619,21.713,56.940,29.20
2019-08-31 10:00,34.672,21.744,57.050,29.23
2019-08-31 11:00,34.702,21.782,57.040,29.18
2019-08-31 12:00,34.737,21.815,57.070,29.16
2019-08-31 13:00,34.722,21.798,57.070,29.18
2019-08-31 14:00,34.706,21.762,57.120,29.25
2019-08-31 15:00,34.716,21.736,57.240,29.35
2019-08-31 16:00,34.719,21.708,57.340,29.44
2019-08-31 17:00,34.718,21.697,57.370,29.47
2019-08-31 18:00,34.719,21.650,57.520,29.61
2019-08-31 19:00,34.738,21.658,57.570,29.63
2019-08-31 20:00,34.747,21.682,57.530,29.58
2019-08-31 21:00,34.758,21.724,57.440,29.48
2019-08-31 22:00,34.806,21.760,57.510,29.48
2019-08-31 23:00,34.822,21.796,57.460,29.41
2019-09-01 00:00,34.868,21.867,57.410,29.30
2019-09-01 01:00,34.894,21.876,57.480,29.33
2019-09-01 02:00,34.890,21.890,57.420,29.28
2019-09-01 03:00,34.919,21.925,57.420,29.24
2019-09-01 04:00,34.896,21.941,57.280,29.14
2019-09-01 05:00,34.890,21.947,57.240,29.11
2019-09-01 06:00,34.898,21.959,57.230,29.09
2019-09-01 07:00,34.920,21.990,57.220,29.05
2019-09-01 08:00,34.954,22.008,57.290,29.07
2019-09-01 09:00,34.962,22.028,57.260,29.03
2019-09-01 10:00,34.980,22.018,57.360,29.10
2019-09-01 11:00,35.022,22.060,57.390,29.07
2019-09-01 12:00,35.069,22.085,57.490,29.10
2019-09-01 13:00,35.095,22.094,57.560,29.13
2019-09-01 14:00,35.138,22.090,57.740,29.24
2019-09-01 15:00,35.000,21.925,57.730,29.42
2019-09-01 16:00,34.913,21.776,57.870,29.67
2019-09-01 17:00,34.924,21.760,57.960,29.74
2019-09-01 18:00,34.933,21.729,58.090,29.85
2019-09-01 19:00,34.932,21.725,58.100,29.86
2019-09-01 20:00,34.913,21.718,58.050,29.84
2019-09-01 21:00,34.938,21.727,58.120,29.87
2019-09-01 22:00,35.033,21.947,57.790,29.43
2019-09-01 23:00,35.060,21.960,57.850,29.45
2019-09-02 00:00,35.094,21.986,57.900,29.45
2019-09-02 01:00,35.082,21.987,57.850,29.42
2019-09-02 02:00,34.939,21.883,57.630,29.41
2019-09-02 03:00,35.027,21.946,57.770,29.42
2019-09-02 04:00,35.056,21.981,57.770,29.38
2019-09-02 05:00,35.067,22.016,57.700,29.30
2019-09-02 06:00,35.014,21.993,57.570,29.25
2019-09-02 07:00,35.029,22.015,57.560,29.22
2019-09-02 08:00,35.077,22.051,57.630,29.22
2019-09-02 09:00,35.114,22.099,57.620,29.16
2019-09-02 10:00,35.143,22.127,57.640,29.14
2019-09-02 11:00,35.174,22.130,57.750,29.20
2019-09-02 12:00,35.186,22.126,57.810,29.24
2019-09-02 13:00,35.010,21.956,57.670,29.35
2019-09-02 14:00,34.961,21.913,57.620,29.37
2019-09-02 15:00,34.933,21.838,57.750,29.53
2019-09-02 16:00,34.874,21.760,57.770,29.63
2019-09-02 17:00,34.813,21.656,57.860,29.80
2019-09-02 18:00,34.836,21.647,57.980,29.88
2019-09-02 19:00,34.839,21.618,58.080,29.97
2019-09-02 20:00,34.852,21.625,58.110,29.98
2019-09-02 21:00,34.894,21.717,57.980,29.80
2019-09-02 22:00,34.991,21.855,57.920,29.61
2019-09-02 23:00,34.966,21.853,57.830,29.56
2019-09-03 00:00,34.893,21.761,57.840,29.67
2019-09-03 01:00,34.868,21.763,57.740,29.61
2019-09-03 02:00,34.863,21.765,57.710,29.59
2019-09-03 03:00,34.835,21.744,57.670,29.59
2019-09-03 04:00,34.748,21.635,57.680,29.72
2019-09-03 05:00,34.695,21.605,57.570,29.69
2019-09-03 06:00,34.735,21.629,57.650,29.71
2019-09-03 07:00,34.751,21.657,57.620,29.66
2019-09-03 08:00,34.774,21.698,57.580,29.59
2019-09-03 09:00,34.805,21.748,57.540,29.51
2019-09-03 10:00,34.919,21.878,57.570,29.38
2019-09-03 11:00,34.860,21.847,57.440,29.34
2019-09-03 12:00,34.748,21.685,57.520,29.57
2019-09-03 13:00,34.753,21.676,57.570,29.61
2019-09-03 14:00,34.730,21.635,57.610,29.68
2019-09-03 15:00,34.753,21.622,57.740,29.77
2019-09-03 16:00,34.772,21.622,57.810,29.81
2019-09-03 17:00,34.819,21.654,57.890,29.82
2019-09-03 18:00,34.829,21.634,57.990,29.90
2019-09-03 19:00,34.835,21.632,58.020,29.92
2019-09-03 20:00,34.843,21.652,57.990,29.88
2019-09-03 21:00,34.872,21.683,58.000,29.85
2019-09-03 22:00,34.945,21.779,57.980,29.73
2019-09-03 23:00,35.118,21.984,58.000,29.51
2019-09-04 00:00,35.192,22.073,58.000,29.41
2019-09-04 01:00,35.203,22.068,58.060,29.45
2019-09-04 02:00,35.140,22.011,58.000,29.48
2019-09-04 03:00,35.202,22.108,57.930,29.33
2019-09-04 04:00,35.241,22.167,57.890,29.24
2019-09-04 05:00,35.249,22.180,57.880,29.22
2019-09-04 06:00,35.264,22.201,57.870,29.19
2019-09-04 07:00,35.279,22.223,57.860,29.16
2019-09-04 08:00,35.287,22.231,57.860,29.15
2019-09-04 09:00,35.287,22.235,57.850,29.14
2019-09-04 10:00,35.296,22.252,57.830,29.11
2019-09-04 11:00,35.296,22.255,57.820,29.10
2019-09-04 12:00,35.339,22.298,57.850,29.07
2019-09-04 13:00,35.381,22.336,57.890,29.05
2019-09-04 14:00,35.386,22.323,57.950,29.10
2019-09-04 15:00,35.395,22.299,58.060,29.19
2019-09-04 16:00,35.393,22.288,58.090,29.22
2019-09-04 17:00,35.389,22.258,58.170,29.30
2019-09-04 18:00,35.261,22.088,58.220,29.52
2019-09-04 19:00,35.249,22.089,58.170,29.49
2019-09-04 20:00,35.140,21.908,58.320,29.78
2019-09-04 21:00,35.060,21.862,58.160,29.74
2019-09-04 22:00,35.176,21.996,58.180,29.60
2019-09-04 23:00,35.163,21.994,58.140,29.58
2019-09-05 00:00,35.209,22.066,58.090,29.47
2019-09-05 01:00,35.238,22.097,58.100,29.44
2019-09-05 02:00,35.215,22.107,57.980,29.36
2019-09-05 03:00,35.248,22.176,57.890,29.23
2019-09-05 04:00,35.251,22.147,57.990,29.32
2019-09-05 05:00,35.252,22.159,57.960,29.29
2019-09-05 06:00,35.247,22.168,57.910,29.25
2019-09-05 07:00,35.251,22.194,57.840,29.18
2019-09-05 08:00,35.261,22.222,57.790,29.12
2019-09-05 09:00,35.113,22.138,57.490,29.04
2019-09-05 10:00,35.141,22.159,57.530,29.04
2019-09-05 11:00,35.162,22.182,57.540,29.02
2019-09-05 12:00,35.148,22.164,57.540,29.04
2019-09-05 13:00,35.175,22.181,57.590,29.05
2019-09-05 14:00,35.178,22.160,57.670,29.12
2019-09-05 15:00,35.007,21.988,57.560,29.25
2019-09-05 16:00,35.019,21.980,57.630,29.30
2019-09-05 17:00,35.058,21.992,57.740,29.35
2019-09-05 18:00,35.056,21.977,57.780,29.39
2019-09-05 19:00,35.032,21.936,57.820,29.46
2019-09-05 20:00,34.978,21.899,57.730,29.45
2019-09-05 21:00,34.966,21.903,57.670,29.41
2019-09-05 22:00,34.989,21.937,57.650,29.36
2019-09-05 23:00,35.018,21.976,57.640,29.31
2019-09-06 00:00,35.041,22.010,57.620,29.26
2019-09-06 01:00,35.037,22.024,57.560,29.21
2019-09-06 02:00,35.091,22.065,57.640,29.21
2019-09-06 03:00,35.132,22.092,57.710,29.22
2019-09-06 04:00,35.154,22.115,57.720,29.20
2019-09-06 05:00,35.189,22.144,57.760,29.19
2019-09-06 06:00,35.210,22.164,57.780,29.18
2019-09-06 07:00,35.211,22.171,57.760,29.16
2019-09-06 08:00,35.198,22.172,57.710,29.13
2019-09-06 09:00,35.079,22.116,57.430,29.03
2019-09-06 10:00,34.838,21.824,57.430,29.36
2019-09-06 11:00,34.858,21.832,57.480,29.38
2019-09-06 12:00,34.889,21.836,57.590,29.44
2019-09-06 13:00,34.929,21.852,57.690,29.48
2019-09-06 14:00,34.908,21.782,57.830,29.64
2019-09-06 15:00,34.895,21.729,57.950,29.77
2019-09-06 16:00,35.031,21.827,58.160,29.78
2019-09-06 17:00,35.070,21.893,58.100,29.67
2019-09-06 18:00,35.000,21.776,58.200,29.86
2019-09-06 19:00,35.015,21.801,58.180,29.82
2019-09-06 20:00,35.037,21.824,58.190,29.80
2019-09-06 21:00,35.090,21.952,57.990,29.54
2019-09-06 22:00,35.063,21.986,57.780,29.38
2019-09-06 23:00,35.085,22.017,57.770,29.34
2019-09-07 00:00,35.087,22.031,57.730,29.30
2019-09-07 01:00,34.999,21.816,58.070,29.74
2019-09-07 02:00,34.929,21.747,58.020,29.79
2019-09-07 03:00,34.941,21.796,57.910,29.67
2019-09-07 04:00,34.942,21.808,57.880,29.64
2019-09-07 05:00,34.913,21.776,57.870,29.67
2019-09-07 06:00,34.879,21.743,57.840,29.69
2019-09-07 07:00,34.860,21.739,57.780,29.66
2019-09-07 08:00,34.862,21.757,57.730,29.61
2019-09-07 09:00,34.863,21.769,57.700,29.58
2019-09-07 10:00,34.878,21.794,57.680,29.54
2019-09-07 11:00,34.894,21.819,57.660,29.50
2019-09-07 12:00,34.872,21.796,57.650,29.52
2019-09-07 13:00,34.629,21.627,57.250,29.48
2019-09-07 14:00,34.743,21.641,57.640,29.69
2019-09-07 15:00,34.795,21.663,57.770,29.74
2019-09-07 16:00,34.802,21.668,57.780,29.74
2019-09-07 17:00,34.832,21.660,57.920,29.83
2019-09-07 18:00,34.763,21.548,58.010,30.01
2019-09-07 19:00,34.872,21.632,58.160,30.00
2019-09-07 20:00,34.891,21.640,58.210,30.02
2019-09-07 21:00,34.881,21.660,58.110,29.94
2019-09-07 22:00,34.890,21.731,57.920,29.75
2019-09-07 23:00,34.945,21.830,57.820,29.58
2019-09-08 00:00,35.014,21.892,57.890,29.55
2019-09-08 01:00,35.046,21.950,57.830,29.45
2019-09-08 02:00,35.084,22.002,57.810,29.38
2019-09-08 03:00,35.098,22.019,57.810,29.36
2019-09-08 04:00,35.049,21.972,57.770,29.39
2019-09-08 05:00,35.070,21.995,57.780,29.37
2019-09-08 06:00,35.060,21.964,57.840,29.44
2019-09-08 07:00,35.069,21.988,57.800,29.39
2019-09-08 08:00,35.069,21.984,57.810,29.40
2019-09-08 09:00,35.077,21.996,57.800,29.38
2019-09-08 10:00,35.077,21.996,57.800,29.38
2019-09-08 11:00,35.062,21.975,57.810,29.41
2019-09-08 12:00,35.046,21.950,57.830,29.45
2019-09-08 13:00,35.034,21.900,57.940,29.57
2019-09-08 14:00,35.060,21.862,58.160,29.74
2019-09-08 15:00,34.836,21.592,58.150,30.04
2019-09-08 16:00,35.012,21.823,58.100,29.75
2019-09-08 17:00,34.983,21.689,58.410,30.08
2019-09-08 18:00,35.031,21.775,58.320,29.93
2019-09-08 19:00,34.900,21.165,59.710,31.41
2019-09-08 20:00,34.932,21.371,59.200,30.89
2019-09-08 21:00,34.937,21.461,58.940,30.64
2019-09-08 22:00,34.950,21.523,58.800,30.49
2019-09-08 23:00,34.958,21.636,58.480,30.18
2019-09-09 00:00,34.996,21.746,58.280,29.94
2019-09-09 01:00,35.002,21.795,58.150,29.81
2019-09-09 02:00,35.020,21.835,58.090,29.73
2019-09-09 03:00,34.934,21.791,57.900,29.67
2019-09-09 04:00,35.019,21.879,57.950,29.60
2019-09-09 05:00,35.035,21.908,57.920,29.55
2019-09-09 06:00,35.057,21.934,57.920,29.52
2019-09-09 07:00,35.052,21.948,57.860,29.47
2019-09-09 08:00,35.035,21.908,57.920,29.55
2019-09-09 09:00,35.043,21.928,57.890,29.51
2019-09-09 10:00,35.043,21.924,57.900,29.52
2019-09-09 11:00,34.588,21.660,56.990,29.29
2019-09-09 12:00,34.972,21.850,57.860,29.58
2019-09-09 13:00,34.996,21.845,57.970,29.65
2019-09-09 14:00,35.018,21.824,58.120,29.76
2019-09-09 15:00,34.968,21.718,58.260,29.96
2019-09-09 16:00,35.014,21.695,58.510,30.13
2019-09-09 17:00,35.051,21.695,58.650,30.21
2019-09-09 18:00,35.051,21.691,58.660,30.22
2019-09-09 19:00,35.064,21.746,58.540,30.09
2019-09-09 20:00,35.053,21.710,58.610,30.17
2019-09-09 21:00,35.051,21.743,58.500,30.07
2019-09-09 22:00,35.067,21.823,58.310,29.87
2019-09-09 23:00,35.033,21.798,58.260,29.87
2019-09-10 00:00,35.002,21.744,58.310,29.96
2019-09-10 01:00,34.989,21.741,58.270,29.94
2019-09-10 02:00,34.976,21.735,58.240,29.93
2019-09-10 03:00,34.979,21.757,58.180,29.87
2019-09-10 04:00,34.995,21.786,58.150,29.82
2019-09-10 05:00,35.004,21.810,58.110,29.77
2019-09-10 06:00,35.015,21.849,58.030,29.68
2019-09-10 07:00,34.986,21.813,58.030,29.72
2019-09-10 08:00,34.980,21.812,58.010,29.71
2019-09-10 09:00,34.966,21.802,57.990,29.71
2019-09-10 10:00,34.982,21.834,57.950,29.65
2019-09-10 11:00,34.990,21.843,57.950,29.64
2019-09-10 12:00,34.991,21.855,57.920,29.61
2019-09-10 13:00,34.988,21.832,57.980,29.67
2019-09-10 14:00,34.970,21.785,58.060,29.77
2019-09-10 15:00,34.971,21.737,58.210,29.91
2019-09-10 16:00,34.980,21.714,58.320,30.00
2019-09-10 17:00,34.977,21.691,58.380,30.06
2019-09-10 18:00,34.977,21.687,58.390,30.07
2019-09-10 19:00,34.993,21.668,58.510,30.16
2019-09-10 20:00,34.943,21.614,58.490,30.21
2019-09-10 21:00,34.944,21.622,58.470,30.19
2019-09-10 22:00,34.947,21.648,58.400,30.12
2019-09-10 23:00,34.958,21.683,58.330,30.04
2019-09-11 00:00,34.974,21.712,58.300,29.99
2019-09-11 01:00,34.990,21.749,58.250,29.92
2019-09-11 02:00,34.991,21.756,58.230,29.90
2019-09-11 03:00,34.993,21.767,58.200,29.87
2019-09-11 04:00,34.995,21.782,58.160,29.83
2019-09-11 05:00,34.988,21.777,58.150,29.83
2019-09-11 06:00,35.019,21.831,58.100,29.74
2019-09-11 07:00,35.015,21.849,58.030,29.68
2019-09-11 08:00,35.009,21.851,58.000,29.66
2019-09-11 09:00,35.037,21.875,58.030,29.65
2019-09-11 10:00,35.085,21.911,58.100,29.65
2019-09-11 11:00,35.099,21.929,58.100,29.63
2019-09-11 12:00,35.098,21.921,58.120,29.65
2019-09-11 13:00,35.097,21.910,58.150,29.68
2019-09-11 14:00,35.092,21.876,58.240,29.77
2019-09-11 15:00,35.089,21.846,58.320,29.85
2019-09-11 16:00,35.094,21.796,58.500,30.01
2019-09-11 17:00,35.118,21.790,58.610,30.08
2019-09-11 18:00,35.118,21.790,58.610,30.08
2019-09-11 19:00,35.135,21.823,58.570,30.02
2019-09-11 20:00,35.166,21.833,58.660,30.06
2019-09-11 21:00,35.182,21.862,58.630,30.01
2019-09-11 22:00,35.193,21.894,58.570,29.94
2019-09-11 23:00,35.203,21.929,58.500,29.86
2019-09-12 00:00,35.230,21.942,58.560,29.88
2019-09-12 01:00,35.237,21.951,58.560,29.87
2019-09-12 02:00,35.232,21.957,58.520,29.84
2019-09-12 03:00,35.225,21.952,58.510,29.84
2019-09-12 04:00,35.210,21.934,58.510,29.86
2019-09-12 05:00,35.172,21.922,58.400,29.81
2019-09-12 06:00,35.173,21.934,58.370,29.78
2019-09-12 07:00,35.164,21.957,58.260,29.69
2019-09-12 08:00,35.186,21.980,58.270,29.67
2019-09-12 09:00,35.172,21.970,58.250,29.67
2019-09-12 10:00,35.198,21.983,58.310,29.69
2019-09-12 11:00,35.236,21.987,58.440,29.76
2019-09-12 12:00,35.186,21.936,58.410,29.80
2019-09-12 13:00,35.106,21.839,58.410,29.91
2019-09-12 14:00,35.083,21.753,58.590,30.11
2019-09-12 15:00,35.017,21.622,58.750,30.35
2019-09-12 16:00,34.992,21.561,58.840,30.47
2019-09-12 17:00,34.981,21.522,58.920,30.56
2019-09-12 18:00,35.006,21.534,58.980,30.58
2019-09-12 19:00,35.041,21.571,59.000,30.55
2019-09-12 20:00,35.045,21.549,59.080,30.62
2019-09-12 21:00,35.053,21.566,59.060,30.59
2019-09-12 22:00,35.070,21.606,59.000,30.51
2019-09-12 23:00,35.074,21.637,58.920,30.43
2019-09-13 00:00,35.041,21.615,58.860,30.42
2019-09-13 01:00,35.039,21.644,58.760,30.33
2019-09-13 02:00,35.033,21.647,58.730,30.31
2019-09-13 03:00,35.048,21.672,58.710,30.27
2019-09-13 04:00,35.030,21.676,58.630,30.22
2019-09-13 05:00,35.048,21.716,58.570,30.14
2019-09-13 06:00,35.037,21.725,58.500,30.09
2019-09-13 07:00,35.065,21.757,58.510,30.06
2019-09-13 08:00,35.100,21.790,58.540,30.04
2019-09-13 09:00,35.087,21.783,58.510,30.03
2019-09-13 10:00,35.065,21.761,58.500,30.05
2019-09-13 11:00,35.036,21.769,58.360,29.96
2019-09-13 12:00,34.995,21.735,58.310,29.97
2019-09-13 13:00,34.976,21.683,58.400,30.08
2019-09-13 14:00,34.909,21.637,58.290,30.07
2019-09-13 15:00,34.879,21.539,58.480,30.29
2019-09-13 16:00,34.859,21.527,58.440,30.28
2019-09-13 17:00,34.811,21.485,58.390,30.30
2019-09-13 18:00,34.797,21.463,58.400,30.33
2019-09-13 19:00,34.831,21.492,58.440,30.32
2019-09-13 20:00,34.871,21.526,58.490,30.31
2019-09-13 21:00,34.811,21.481,58.400,30.31
2019-09-13 22:00,34.911,21.553,58.560,30.32
2019-09-13 23:00,34.866,21.532,58.450,30.28
2019-09-14 00:00,34.834,21.518,58.370,30.25
2019-09-14 01:00,34.808,21.506,58.310,30.23
2019-09-14 02:00,34.809,21.521,58.270,30.19
2019-09-14 03:00,34.824,21.542,58.260,30.16
2019-09-14 04:00,34.846,21.572,58.250,30.12
2019-09-14 05:00,34.869,21.606,58.230,30.07
2019-09-14 06:00,34.911,21.655,58.240,30.02
2019-09-14 07:00,34.954,21.705,58.250,29.97
2019-09-14 08:00,34.977,21.742,58.220,29.91
2019-09-14 09:00,34.978,21.746,58.210,29.90
2019-09-14 10:00,35.007,21.781,58.210,29.86
2019-09-14 11:00,35.056,21.832,58.240,29.82
2019-09-14 12:00,35.136,21.926,58.250,29.72
2019-09-14 13:00,35.162,21.939,58.310,29.74
2019-09-14 14:00,35.152,21.911,58.360,29.80
2019-09-14 15:00,35.135,21.871,58.420,29.88
2019-09-14 16:00,35.115,21.815,58.520,30.00
2019-09-14 17:00,35.105,21.783,58.580,30.07
2019-09-14 18:00,35.101,21.749,58.670,30.16
2019-09-14 19:00,35.106,21.743,58.710,30.19
2019-09-14 20:00,35.140,21.768,58.760,30.19